User: anonymous   Login
Location: Unspecified
(0.0000°N, 0.0000°E)
Time: 19:09:09
(UTC+00:00)
Language:

STARLINK-5783 - Orbit

View from above orbital plane
View from above orbital plane
View from above satellite
View from above satellite

Ground track
Ground track

The orbit is defined by the following mean orbital elements,

1 56022U          26145.21627352 +.00000000 +00000-0 +12735-4 0 00006
2 56022  43.0032 332.6701 0001288 269.4855  90.5850 15.27576649    08
Epoch (UTC): 25 May 2026 05:11:26
Eccentricity: 0.0001288
inclination: 43.0032°
perigee height: 482 km
apogee height: 484 km
right ascension of ascending node: 332.6701°
argument of perigee: 269.4855°
revolutions per day: 15.27576649
mean anomaly at epoch: 90.5850°

The dashed part of the orbit path shows where the satellite is in the earth's shadow,  

DLR